Location: Unspecified
(0.0000°N, 0.0000°E)
Time: 23:45:03
(UTC+00:00)

N. Korean satellite - Pass Details

Date: 25 April 2017
Orbit: 462 x 516 km, 97.2° (Epoch: 15 August)

Event Time Altitude Azimuth Distance (km) Brightness Sun altitude
Rises 18:56:26 0° 179° (S) 2,494 10.0 -14.2°
Reaches altitude 10° 18:58:32 10° 186° (S) 1,612 9.1 -14.7°
Maximum altitude 19:01:50 44° 259° (W) 651 7.6 -15.5°
Drops below altitude 10° 19:05:07 10° 332° (NNW) 1,601 9.8 -16.3°
Sets 19:07:12 0° 339° (NNW) 2,474 10.7 -16.8°
